User: anonymous   Login
Location: Unspecified
(0.0000°N, 0.0000°E)
Time: 00:51:59
(UTC+00:00)
Language:

TISAT 1 - Orbit

View from above orbital plane
View from above orbital plane
View from above satellite
View from above satellite

Ground track
Ground track

The orbit is defined by the following mean orbital elements,

1 36799U          26145.31062712 +.00000000 +00000-0 +68657-3 0 00002
2 36799  98.0695  89.8486 0002169  30.8829 329.2537 15.30703160    01
Epoch (UTC): 25 May 2026 07:27:18
Eccentricity: 0.0002169
inclination: 98.0695°
perigee height: 472 km
apogee height: 475 km
right ascension of ascending node: 89.8486°
argument of perigee: 30.8829°
revolutions per day: 15.30703160
mean anomaly at epoch: 329.2537°

The dashed part of the orbit path shows where the satellite is in the earth's shadow,  

DLR